Terug naar catalogus

NOAA 16 DEB

ActiefSSO
NORAD 41284·DEBRIS·🇺🇸 United States

Gelanceerd Sep 21, 2000 vanaf Vandenberg Space Force Base

Loading…

Volgende Passages (komende 24 uur)

TLE

VersSource: Space-Track

Epoch: Sep 14, 2026, 09:05 UTC

1 41284U 00055GL  26257.37871384  .00001848  00000-0  10773-2 0  9993
2 41284  98.8621 222.3401 0073407 209.9642 149.7316 14.08401776546758

Volg NOAA 16 DEB in realtime met AllMySat

Download on the App Store